FW8334 Weather Reports


Display with metric or nautical units.
time (UTC)temp
F
wind
direction
speed
MPH
gust
MPH
rain 1hr
in
rain 24hr
in
rain mn
in
humidity
%
barometer
mb
20260504044554 62 0 0.0 2.0 0.00 0.00 0.00 74 1013.9
20260504043044 61 0 0.0 1.0 0.00 0.00 0.00 74 1013.7
20260504041542 61 0 0.0 0.0 0.00 0.00 0.00 74 1013.6
20260504040046 61 269 0.0 3.0 0.00 0.00 0.00 73 1013.5
20260504034551 62 244 0.0 4.0 0.00 0.00 0.00 73 1013.7
20260504033050 62 0 0.0 4.0 0.00 0.00 0.00 73 1013.7
20260504031549 62 291 0.0 2.0 0.00 0.00 0.00 72 1013.5
20260504030041 62 0 0.0 6.0 0.00 0.00 0.00 72 1013.4
20260504024546 62 276 1.0 4.0 0.00 0.00 0.00 71 1013.0
20260504023040 62 274 1.0 6.0 0.00 0.00 0.00 71 1013.1
20260504021544 62 302 1.0 7.0 0.00 0.00 0.00 70 1013.3
20260504020041 62 0 1.0 8.0 0.00 0.00 0.00 70 1013.1
20260504014545 63 248 2.0 8.0 0.00 0.00 0.00 69 1012.9
20260504013048 63 271 2.0 10.0 0.00 0.00 0.00 69 1013.1
20260504011548 63 237 3.0 9.0 0.00 0.00 0.00 69 1012.7
20260504010054 63 266 1.0 8.0 0.00 0.00 0.00 68 1012.6
20260504004542 63 275 2.0 7.0 0.00 0.00 0.00 67 1012.3
20260504003042 64 277 3.0 9.0 0.00 0.00 0.00 65 1012.1
20260504001559 64 348 2.0 12.0 0.00 0.00 0.00 64 1012.1
20260504000049 65 256 3.0 10.0 0.00 0.00 0.00 63 1011.9
20260503234542 67 241 3.0 11.0 0.00 0.00 0.00 61 1011.7
20260503233042 65 277 2.0 10.0 0.00 0.00 0.00 61 1011.7
20260503231541 69 153 3.0 7.0 0.00 0.00 0.00 57 1011.7
20260503230039 69 283 3.0 9.0 0.00 0.00 0.00 58 1012.0
20260503224545 71 285 3.0 10.0 0.00 0.00 0.00 58 1012.0
20260503223044 69 257 3.0 10.0 0.00 0.00 0.00 58 1012.0
20260503221544 70 254 3.0 10.0 0.00 0.00 0.00 56 1012.2
20260503220051 69 261 2.0 7.0 0.00 0.00 0.00 59 1012.2
20260503214546 70 27 3.0 9.0 0.00 0.00 0.00 59 1012.6
20260503213043 68 196 2.0 9.0 0.00 0.00 0.00 62 1012.7
20260503211558 67 253 1.0 9.0 0.00 0.00 0.00 65 1012.8
20260503210054 69 257 3.0 11.0 0.00 0.00 0.00 63 1012.7
20260503204553 69 227 3.0 8.0 0.00 0.00 0.00 63 1012.8
20260503203043 66 247 1.0 8.0 0.00 0.00 0.00 66 1013.1
20260503201541 67 259 2.0 7.0 0.00 0.00 0.00 67 1013.1
20260503200042 68 243 4.0 12.0 0.00 0.00 0.00 64 1013.3
20260503194542 68 306 3.0 9.0 0.00 0.00 0.00 66 1013.3
20260503193047 67 166 2.0 9.0 0.00 0.00 0.00 67 1013.5
20260503191542 66 273 2.0 12.0 0.00 0.00 0.00 69 1013.4
20260503190042 67 268 1.0 7.0 0.00 0.00 0.00 70 1013.6
20260503184544 65 258 2.0 8.0 0.00 0.00 0.00 71 1013.4
20260503183045 65 352 0.0 12.0 0.00 0.00 0.00 74 1013.5
20260503181615 66 300 2.0 6.0 0.00 0.00 0.00 73 1013.4
20260503180043 64 272 1.0 4.0 0.00 0.00 0.00 76 1013.4
20260503174541 64 292 1.0 6.0 0.00 0.00 0.00 76 1013.6
20260503173051 65 300 0.0 5.0 0.00 0.00 0.00 75 1013.3
20260503171543 66 225 1.0 4.0 0.00 0.00 0.00 73 1013.1
20260503081539 60 0 0.0 3.0 0.00 0.00 0.00 89 1012.2
20260503071539 61 300 1.0 4.0 0.00 0.00 0.00 89 1012.7